SWR4SP LSZH-EDDL

Flight info

Callsign SWR4SP
Flight time 0h 56m
Altitude 30000
Route VEBIT T10 TORPA DCT EDOPI DCT GIVOR DCT SORAL DCT IBERA DCT DIK N853 ARCKY T853 NVO T857 BIKMU BIKMU1A
Aircraft A359/H-SDE2E3GHIJ1J3J4J5LM1ORWXY/LB1D1

Departure

Time 2026-04-30 08:16
Airport Zürich Airport (LSZH)

Arrival

Time 2026-04-30 09:12
Airport Düsseldorf Airport (EDDL)
Time Latitude Longitude Altitude Speed Heading
2026-04-30 07:59 47.45172 8.55899 1420 ft 0 kts 186°
2026-04-30 08:09 47.45195 8.55902 1416 ft 4 kts 186°
2026-04-30 08:09 47.45222 8.55904 1420 ft 3 kts 169°
2026-04-30 08:09 47.45223 8.55904 1420 ft 0 kts 168°
2026-04-30 08:11 47.45211 8.55897 1421 ft 8 kts 207°
2026-04-30 08:11 47.45227 8.55778 1416 ft 18 kts 294°
2026-04-30 08:11 47.45269 8.55619 1414 ft 20 kts 284°
2026-04-30 08:11 47.45340 8.55415 1415 ft 25 kts 313°
2026-04-30 08:12 47.45501 8.55307 1414 ft 25 kts 333°
2026-04-30 08:12 47.45635 8.55214 1413 ft 13 kts 352°
2026-04-30 08:12 47.45680 8.55290 1412 ft 11 kts 96°
2026-04-30 08:12 47.45671 8.55407 1412 ft 12 kts 97°
2026-04-30 08:13 47.45660 8.55537 1414 ft 13 kts 97°
2026-04-30 08:13 47.45648 8.55680 1417 ft 15 kts 97°
2026-04-30 08:13 47.45638 8.55833 1416 ft 15 kts 95°
2026-04-30 08:13 47.45628 8.55996 1416 ft 17 kts 95°
2026-04-30 08:14 47.45618 8.56176 1425 ft 18 kts 95°
2026-04-30 08:14 47.45602 8.56369 1425 ft 20 kts 97°
2026-04-30 08:14 47.45587 8.56577 1425 ft 21 kts 96°
2026-04-30 08:14 47.45572 8.56788 1426 ft 18 kts 95°
2026-04-30 08:15 47.45568 8.56947 1427 ft 14 kts 71°
2026-04-30 08:15 47.45630 8.57014 1431 ft 10 kts 358°
2026-04-30 08:15 47.45664 8.56934 1430 ft 12 kts 281°
2026-04-30 08:15 47.45667 8.56907 1429 ft 1 kts 278°
2026-04-30 08:16 47.45703 8.56437 1423 ft 103 kts 276°
2026-04-30 08:16 47.45805 8.54837 1545 ft 192 kts 277°
2026-04-30 08:16 47.45934 8.52734 2577 ft 221 kts 279°
2026-04-30 08:16 47.46110 8.50308 3346 ft 253 kts 276°
2026-04-30 08:17 47.45735 8.47646 3853 ft 278 kts 240°
2026-04-30 08:17 47.44604 8.45326 4951 ft 277 kts 229°
2026-04-30 08:17 47.43400 8.43113 6122 ft 277 kts 230°
2026-04-30 08:17 47.42205 8.40864 7062 ft 280 kts 230°
2026-04-30 08:18 47.41001 8.38552 7697 ft 287 kts 231°
2026-04-30 08:18 47.39790 8.36194 8458 ft 290 kts 231°
2026-04-30 08:18 47.38664 8.33708 9257 ft 292 kts 239°
2026-04-30 08:18 47.37689 8.31062 9975 ft 298 kts 242°
2026-04-30 08:19 47.36717 8.28317 10542 ft 307 kts 242°
2026-04-30 08:19 47.35700 8.25441 10830 ft 325 kts 242°
2026-04-30 08:19 47.34628 8.22407 11142 ft 341 kts 243°
2026-04-30 08:19 47.33515 8.19274 11695 ft 346 kts 242°
2026-04-30 08:20 47.32388 8.16107 12251 ft 353 kts 243°
2026-04-30 08:20 47.31235 8.12870 12745 ft 362 kts 243°
2026-04-30 08:20 47.30065 8.09574 13407 ft 362 kts 243°
2026-04-30 08:20 47.28898 8.06296 14185 ft 361 kts 243°
2026-04-30 08:21 47.27759 8.02974 14674 ft 366 kts 247°
2026-04-30 08:21 47.27237 8.00563 14977 ft 367 kts 261°
2026-04-30 08:21 47.27116 7.96817 15499 ft 367 kts 275°
2026-04-30 08:21 47.27345 7.93062 16237 ft 370 kts 280°
2026-04-30 08:22 47.27721 7.89346 17164 ft 373 kts 282°
2026-04-30 08:22 47.28156 7.85561 18068 ft 378 kts 283°
2026-04-30 08:22 47.28597 7.81715 18907 ft 384 kts 283°
2026-04-30 08:22 47.29025 7.77796 19694 ft 390 kts 282°
2026-04-30 08:23 47.29434 7.73817 20482 ft 396 kts 282°
2026-04-30 08:23 47.29829 7.69774 21257 ft 402 kts 281°
2026-04-30 08:23 47.30222 7.65663 22057 ft 408 kts 281°
2026-04-30 08:23 47.30846 7.61575 22852 ft 411 kts 289°
2026-04-30 08:24 47.31632 7.57500 23622 ft 416 kts 290°
2026-04-30 08:24 47.32487 7.53407 24314 ft 421 kts 291°
2026-04-30 08:24 47.33384 7.49273 24953 ft 426 kts 291°
2026-04-30 08:24 47.34304 7.45101 25596 ft 430 kts 291°
2026-04-30 08:25 47.35233 7.40883 26259 ft 435 kts 291°
2026-04-30 08:25 47.36168 7.36616 26908 ft 439 kts 291°
2026-04-30 08:25 47.37105 7.32303 27555 ft 444 kts 290°
2026-04-30 08:25 47.38046 7.27948 28216 ft 448 kts 290°
2026-04-30 08:26 47.38990 7.23558 28854 ft 452 kts 290°
2026-04-30 08:26 47.39929 7.19174 29475 ft 455 kts 290°
2026-04-30 08:26 47.40797 7.14650 30018 ft 462 kts 285°
2026-04-30 08:26 47.41534 7.10035 30222 ft 458 kts 285°
2026-04-30 08:27 47.42212 7.05538 30224 ft 440 kts 284°
2026-04-30 08:27 47.42845 7.01196 30229 ft 424 kts 284°
2026-04-30 08:27 47.43451 6.96986 30224 ft 417 kts 284°
2026-04-30 08:28 47.44663 6.88598 30210 ft 418 kts 284°
2026-04-30 08:28 47.45892 6.80193 30206 ft 418 kts 285°
2026-04-30 08:28 47.46800 6.76133 30210 ft 415 kts 296°
2026-04-30 08:29 47.48176 6.72431 30211 ft 410 kts 308°
2026-04-30 08:29 47.50007 6.69243 30212 ft 405 kts 320°
2026-04-30 08:29 47.52217 6.66717 30213 ft 400 kts 333°
2026-04-30 08:29 47.54705 6.64942 30210 ft 395 kts 345°
2026-04-30 08:30 47.57353 6.63941 30213 ft 392 kts 354°
2026-04-30 08:30 47.62701 6.62755 30208 ft 391 kts 357°
2026-04-30 08:31 47.68098 6.61760 30211 ft 391 kts 357°
2026-04-30 08:31 47.73489 6.60731 30208 ft 391 kts 356°
2026-04-30 08:32 47.78877 6.59658 30201 ft 391 kts 356°
2026-04-30 08:32 47.84262 6.58567 30193 ft 391 kts 356°
2026-04-30 08:33 47.89651 6.57472 30191 ft 391 kts 356°
2026-04-30 08:33 47.95039 6.56361 30192 ft 391 kts 355°
2026-04-30 08:34 48.00421 6.55072 30192 ft 392 kts 355°
2026-04-30 08:34 48.05807 6.53733 30191 ft 392 kts 355°
2026-04-30 08:35 48.11171 6.52424 30193 ft 391 kts 355°
2026-04-30 08:35 48.16190 6.51213 30200 ft 391 kts 355°
2026-04-30 08:36 48.21560 6.49921 30210 ft 391 kts 355°
2026-04-30 08:36 48.26934 6.48624 30209 ft 391 kts 356°
2026-04-30 08:37 48.32253 6.47337 30220 ft 390 kts 356°
2026-04-30 08:37 48.37613 6.46039 30206 ft 390 kts 356°
2026-04-30 08:38 48.42983 6.44736 30224 ft 392 kts 356°
2026-04-30 08:38 48.48383 6.43421 30228 ft 393 kts 356°
2026-04-30 08:39 48.53776 6.42103 30251 ft 392 kts 356°
2026-04-30 08:39 48.59163 6.40784 30258 ft 392 kts 356°
2026-04-30 08:40 48.64558 6.39511 30259 ft 390 kts 359°
2026-04-30 08:40 48.69925 6.39540 30263 ft 385 kts
2026-04-30 08:41 48.75265 6.40034 30266 ft 384 kts
2026-04-30 08:41 48.80592 6.40604 30265 ft 384 kts
2026-04-30 08:42 48.85927 6.41166 30284 ft 384 kts
2026-04-30 08:42 48.91224 6.41710 30283 ft 384 kts
2026-04-30 08:43 48.96547 6.42249 30290 ft 384 kts
2026-04-30 08:43 49.01874 6.42792 30290 ft 383 kts
2026-04-30 08:44 49.07202 6.43337 30287 ft 384 kts
2026-04-30 08:44 49.12564 6.43108 30292 ft 392 kts 354°
2026-04-30 08:45 49.17904 6.41255 30289 ft 394 kts 350°
2026-04-30 08:45 49.23196 6.39030 30287 ft 395 kts 349°
2026-04-30 08:46 49.28480 6.36779 30296 ft 394 kts 349°
2026-04-30 08:46 49.33774 6.34569 30299 ft 394 kts 350°
2026-04-30 08:47 49.39073 6.32378 30308 ft 393 kts 350°
2026-04-30 08:47 49.44354 6.30194 30314 ft 393 kts 350°
2026-04-30 08:48 49.49633 6.28006 30317 ft 393 kts 350°
2026-04-30 08:48 49.54927 6.25826 30320 ft 395 kts 350°
2026-04-30 08:49 49.60252 6.23651 30318 ft 396 kts 350°
2026-04-30 08:49 49.65569 6.21469 30319 ft 395 kts 350°
2026-04-30 08:50 49.70877 6.19286 30319 ft 395 kts 350°
2026-04-30 08:50 49.76188 6.17096 30319 ft 395 kts 350°
2026-04-30 08:51 49.81528 6.14893 30177 ft 408 kts 349°
2026-04-30 08:51 49.84344 6.13769 30092 ft 427 kts 351°
2026-04-30 08:51 49.87282 6.13141 29770 ft 424 kts
2026-04-30 08:51 49.90213 6.12940 29203 ft 419 kts
2026-04-30 08:52 49.93111 6.12885 28647 ft 414 kts
2026-04-30 08:52 49.95968 6.12904 28122 ft 409 kts
2026-04-30 08:52 49.98801 6.12953 27616 ft 405 kts
2026-04-30 08:52 50.01610 6.13005 27092 ft 402 kts
2026-04-30 08:53 50.04397 6.13049 26564 ft 399 kts
2026-04-30 08:53 50.07162 6.13082 26042 ft 396 kts
2026-04-30 08:53 50.09908 6.13105 25524 ft 393 kts
2026-04-30 08:53 50.12635 6.13123 25000 ft 391 kts
2026-04-30 08:54 50.15311 6.13139 24476 ft 389 kts
2026-04-30 08:54 50.18012 6.13155 23952 ft 387 kts
2026-04-30 08:54 50.20696 6.13170 23355 ft 384 kts
2026-04-30 08:54 50.23355 6.13183 22818 ft 380 kts
2026-04-30 08:55 50.25987 6.13196 22282 ft 376 kts
2026-04-30 08:55 50.28563 6.13540 21744 ft 368 kts 14°
2026-04-30 08:55 50.30976 6.14722 21206 ft 360 kts 27°
2026-04-30 08:55 50.33187 6.16513 20684 ft 356 kts 32°
2026-04-30 08:56 50.35295 6.18507 20162 ft 353 kts 35°
2026-04-30 08:56 50.37341 6.20600 19652 ft 350 kts 36°
2026-04-30 08:56 50.39353 6.22724 19132 ft 348 kts 37°
2026-04-30 08:56 50.41350 6.24843 18630 ft 346 kts 37°
2026-04-30 08:57 50.43337 6.26941 18040 ft 343 kts 36°
2026-04-30 08:57 50.45315 6.29011 17548 ft 340 kts 36°
2026-04-30 08:57 50.47283 6.31057 17011 ft 338 kts 36°
2026-04-30 08:57 50.49237 6.33082 16484 ft 335 kts 36°
2026-04-30 08:58 50.51190 6.35055 15953 ft 334 kts 34°
2026-04-30 08:58 50.53182 6.36918 15448 ft 331 kts 33°
2026-04-30 08:58 50.55179 6.38713 14923 ft 329 kts 32°
2026-04-30 08:58 50.57166 6.40482 14420 ft 327 kts 33°
2026-04-30 08:59 50.59138 6.42248 13846 ft 325 kts 33°
2026-04-30 08:59 50.61084 6.44008 13350 ft 322 kts 33°
2026-04-30 08:59 50.63023 6.45780 12818 ft 320 kts 33°
2026-04-30 08:59 50.64933 6.47536 12311 ft 318 kts 33°
2026-04-30 09:00 50.66837 6.49297 11791 ft 316 kts 34°
2026-04-30 09:00 50.68723 6.51046 11340 ft 312 kts 34°
2026-04-30 09:00 50.70544 6.52732 11212 ft 296 kts 34°
2026-04-30 09:00 50.72277 6.54331 11094 ft 281 kts 34°
2026-04-30 09:01 50.73925 6.55853 11022 ft 267 kts 34°
2026-04-30 09:01 50.75503 6.57315 10923 ft 260 kts 35°
2026-04-30 09:01 50.77055 6.58763 10687 ft 258 kts 35°
2026-04-30 09:01 50.78598 6.60206 10339 ft 257 kts 35°
2026-04-30 09:02 50.81881 6.63089 9874 ft 280 kts 26°
2026-04-30 09:02 50.83756 6.63945 9374 ft 282 kts 18°
2026-04-30 09:02 50.85691 6.64536 8908 ft 283 kts 14°
2026-04-30 09:03 50.87631 6.64975 8519 ft 281 kts 12°
2026-04-30 09:03 50.89565 6.65348 8161 ft 280 kts 12°
2026-04-30 09:03 50.91497 6.65706 7804 ft 278 kts 12°
2026-04-30 09:03 50.93414 6.66071 7443 ft 277 kts 12°
2026-04-30 09:04 50.95318 6.66449 7092 ft 275 kts 12°
2026-04-30 09:04 50.97211 6.66840 6722 ft 273 kts 13°
2026-04-30 09:04 50.99091 6.67237 6357 ft 272 kts 13°
2026-04-30 09:04 51.00969 6.67638 5995 ft 272 kts 13°
2026-04-30 09:05 51.02864 6.67771 5618 ft 274 kts
2026-04-30 09:05 51.04776 6.67683 5120 ft 276 kts
2026-04-30 09:05 51.06675 6.67552 4869 ft 268 kts
2026-04-30 09:05 51.08496 6.67406 4711 ft 257 kts
2026-04-30 09:06 51.10224 6.66913 4431 ft 260 kts 343°
2026-04-30 09:06 51.11670 6.65197 4216 ft 262 kts 314°
2026-04-30 09:06 51.12821 6.62973 4064 ft 260 kts 311°
2026-04-30 09:06 51.13922 6.60732 3958 ft 252 kts 311°
2026-04-30 09:07 51.14982 6.58584 3865 ft 241 kts 311°
2026-04-30 09:07 51.16004 6.56540 3750 ft 231 kts 311°
2026-04-30 09:07 51.17161 6.54914 3641 ft 212 kts 343°
2026-04-30 09:07 51.18485 6.54818 3504 ft 178 kts 31°
2026-04-30 09:08 51.19307 6.56015 3316 ft 152 kts 67°
2026-04-30 09:08 51.19834 6.57451 2965 ft 150 kts 68°
2026-04-30 09:08 51.20308 6.58913 2777 ft 150 kts 67°
2026-04-30 09:08 51.20916 6.60268 2567 ft 151 kts 61°
2026-04-30 09:09 51.21533 6.61606 2354 ft 149 kts 61°
2026-04-30 09:09 51.22133 6.62936 2160 ft 148 kts 60°
2026-04-30 09:09 51.22742 6.64255 1934 ft 148 kts 60°
2026-04-30 09:09 51.23363 6.65559 1742 ft 147 kts 58°
2026-04-30 09:10 51.23983 6.66853 1510 ft 146 kts 58°
2026-04-30 09:10 51.24591 6.68133 1317 ft 141 kts 58°
2026-04-30 09:10 51.25169 6.69345 1115 ft 133 kts 59°
2026-04-30 09:10 51.25705 6.70470 948 ft 122 kts 60°
2026-04-30 09:11 51.26208 6.71531 795 ft 119 kts 57°
2026-04-30 09:11 51.26705 6.72569 640 ft 116 kts 60°
2026-04-30 09:11 51.27028 6.73257 522 ft 115 kts 60°
2026-04-30 09:11 51.27522 6.74253 366 ft 117 kts 60°
2026-04-30 09:12 51.28009 6.75285 218 ft 117 kts 58°
2026-04-30 09:12 51.28495 6.76302 137 ft 107 kts 59°
2026-04-30 09:12 51.28826 6.77010 128 ft 52 kts 52°
2026-04-30 09:12 51.28987 6.77345 135 ft 21 kts 52°
2026-04-30 09:13 51.29015 6.77529 133 ft 17 kts 109°
2026-04-30 09:13 51.28946 6.77635 135 ft 13 kts 158°
2026-04-30 09:13 51.28871 6.77576 136 ft 14 kts 231°
2026-04-30 09:13 51.28801 6.77431 136 ft 19 kts 232°
2026-04-30 09:14 51.28712 6.77246 136 ft 21 kts 232°
2026-04-30 09:14 51.28616 6.77045 136 ft 24 kts 232°
2026-04-30 09:14 51.28506 6.76816 128 ft 27 kts 233°
2026-04-30 09:14 51.28424 6.76688 123 ft 13 kts 194°
2026-04-30 09:15 51.28387 6.76707 123 ft 8 kts 153°
2026-04-30 09:15 51.28323 6.76727 133 ft 9 kts 189°
2026-04-30 09:15 51.28276 6.76704 125 ft 4 kts 199°
2026-04-30 09:15 51.28259 6.76695 128 ft 0 kts 200°